User: anonymous   Login
Location: Unspecified
(0.0000°N, 0.0000°E)
Time: 02:06:04
(UTC+00:00)
Language:

GOSAT - Orbit

View from above orbital plane
View from above orbital plane
View from above satellite
View from above satellite

Ground track
Ground track

The orbit data is extracted from the following two-line orbital elements,

1 33492U 09002A   19020.84963798 -.00000031 +00000-0 +28421-5 0  9995
2 33492 098.0211 136.1678 0001019 069.4908 290.6409 14.67573148535282
Epoch (UTC): 20 January 2019 20:23:28
Eccentricity: 0.0001019
inclination: 98.0211°
perigee height: 668 km
apogee height: 669 km
right ascension of ascending node: 136.1678°
argument of perigee: 69.4908°
revolutions per day: 14.67573148
mean anomaly at epoch: 290.6409°
orbit number at epoch: 53528

The dashed part of the orbit path shows where the satellite is in the earth's shadow,  

DLR